Year,Month,Day,Hour,Minute,Value (Times are PST for temperature in C)
2016,06,15,00,00,7.50
2016,06,15,00,01,7.50
2016,06,15,00,02,7.50
2016,06,15,00,03,7.50
2016,06,15,00,04,7.50
2016,06,15,00,05,7.50
2016,06,15,00,06,7.50
2016,06,15,00,07,7.60
2016,06,15,00,08,7.60
2016,06,15,00,09,7.70
2016,06,15,00,10,7.80
2016,06,15,00,11,7.80
2016,06,15,00,12,7.90
2016,06,15,00,13,7.90
2016,06,15,00,14,8.00
2016,06,15,00,15,8.00
2016,06,15,00,16,8.00
2016,06,15,00,17,8.10
2016,06,15,00,18,8.10
2016,06,15,00,19,8.00
2016,06,15,00,20,8.00
2016,06,15,00,21,8.00
2016,06,15,00,22,8.00
2016,06,15,00,23,8.00
2016,06,15,00,24,8.00
2016,06,15,00,25,8.00
2016,06,15,00,26,8.00
2016,06,15,00,27,7.90
2016,06,15,00,28,7.90
2016,06,15,00,29,7.90
2016,06,15,00,30,7.90
2016,06,15,00,31,7.90
2016,06,15,00,32,7.90
2016,06,15,00,33,7.90
2016,06,15,00,34,7.90
2016,06,15,00,35,7.90
2016,06,15,00,36,7.90
2016,06,15,00,37,7.90
2016,06,15,00,38,7.90
2016,06,15,00,39,7.90
2016,06,15,00,40,8.00
2016,06,15,00,41,8.00
2016,06,15,00,42,8.00
2016,06,15,00,43,8.00
2016,06,15,00,44,8.00
2016,06,15,00,45,8.00
2016,06,15,00,46,8.00
2016,06,15,00,47,7.90
2016,06,15,00,48,7.90
2016,06,15,00,49,7.90
2016,06,15,00,50,7.90
2016,06,15,00,51,7.80
2016,06,15,00,52,7.80
2016,06,15,00,53,7.80
2016,06,15,00,54,7.80
2016,06,15,00,55,7.80
2016,06,15,00,56,7.70
2016,06,15,00,57,7.70
2016,06,15,00,58,7.70
2016,06,15,00,59,7.70
2016,06,15,01,00,7.70
2016,06,15,01,01,7.60
2016,06,15,01,02,7.60
2016,06,15,01,03,7.60
2016,06,15,01,04,7.60
2016,06,15,01,05,7.60
2016,06,15,01,06,7.50
2016,06,15,01,07,7.50
2016,06,15,01,08,7.50
2016,06,15,01,09,7.40
2016,06,15,01,10,7.40
2016,06,15,01,11,7.40
2016,06,15,01,12,7.30
2016,06,15,01,13,7.30
2016,06,15,01,14,7.30
2016,06,15,01,15,7.30
2016,06,15,01,16,7.20
2016,06,15,01,17,7.20
2016,06,15,01,18,7.20
2016,06,15,01,19,7.20
2016,06,15,01,20,7.20
2016,06,15,01,21,7.20
2016,06,15,01,22,7.20
2016,06,15,01,23,7.20
2016,06,15,01,24,7.20
2016,06,15,01,25,7.20
2016,06,15,01,26,7.20
2016,06,15,01,27,7.20
2016,06,15,01,28,7.20
2016,06,15,01,29,7.20
2016,06,15,01,30,7.20
2016,06,15,01,31,7.20
2016,06,15,01,32,7.20
2016,06,15,01,33,7.20
2016,06,15,01,34,7.20
2016,06,15,01,35,7.20
2016,06,15,01,36,7.20
2016,06,15,01,37,7.10
2016,06,15,01,38,7.10
2016,06,15,01,39,7.10
2016,06,15,01,40,7.10
2016,06,15,01,41,7.10
2016,06,15,01,42,7.10
2016,06,15,01,43,7.10
2016,06,15,01,44,7.10
2016,06,15,01,45,7.20
2016,06,15,01,46,7.20
2016,06,15,01,47,7.20
2016,06,15,01,48,7.20
2016,06,15,01,49,7.20
2016,06,15,01,50,7.20
2016,06,15,01,51,7.20
2016,06,15,01,52,7.20
2016,06,15,01,53,7.20
2016,06,15,01,54,7.20
2016,06,15,01,55,7.20
2016,06,15,01,56,7.20
2016,06,15,01,57,7.20
2016,06,15,01,58,7.20
2016,06,15,01,59,7.20
2016,06,15,02,00,7.20
2016,06,15,02,01,7.20
2016,06,15,02,02,7.20
2016,06,15,02,03,7.20
2016,06,15,02,04,7.20
2016,06,15,02,05,7.20
2016,06,15,02,06,7.20
2016,06,15,02,07,7.20
2016,06,15,02,08,7.20
2016,06,15,02,09,7.20
2016,06,15,02,10,7.10
2016,06,15,02,11,7.10
2016,06,15,02,12,7.10
2016,06,15,02,13,7.10
2016,06,15,02,14,7.10
2016,06,15,02,15,7.00
2016,06,15,02,16,7.00
2016,06,15,02,17,7.00
2016,06,15,02,18,7.00
2016,06,15,02,19,6.90
2016,06,15,02,20,6.90
2016,06,15,02,21,6.90
2016,06,15,02,22,6.90
2016,06,15,02,23,6.90
2016,06,15,02,24,6.90
2016,06,15,02,25,6.90
2016,06,15,02,26,6.90
2016,06,15,02,27,6.90
2016,06,15,02,28,6.90
2016,06,15,02,29,6.90
2016,06,15,02,30,6.90
2016,06,15,02,31,6.90
2016,06,15,02,32,6.90
2016,06,15,02,33,6.90
2016,06,15,02,34,6.90
2016,06,15,02,35,6.90
2016,06,15,02,36,6.90
2016,06,15,02,37,6.90
2016,06,15,02,38,6.90
2016,06,15,02,39,6.90
2016,06,15,02,40,6.90
2016,06,15,02,41,6.90
2016,06,15,02,42,6.80
2016,06,15,02,43,6.80
2016,06,15,02,44,6.80
2016,06,15,02,45,6.80
2016,06,15,02,46,6.80
2016,06,15,02,47,6.80
2016,06,15,02,48,6.80
2016,06,15,02,49,6.80
2016,06,15,02,50,6.80
2016,06,15,02,51,6.80
2016,06,15,02,52,6.80
2016,06,15,02,53,6.80
2016,06,15,02,54,6.80
2016,06,15,02,55,6.80
2016,06,15,02,56,6.80
2016,06,15,02,57,6.80
2016,06,15,02,58,6.90
2016,06,15,02,59,6.90
2016,06,15,03,00,6.90
2016,06,15,03,01,6.90
2016,06,15,03,02,6.90
2016,06,15,03,03,6.80
2016,06,15,03,04,6.80
2016,06,15,03,05,6.80
2016,06,15,03,06,6.80
2016,06,15,03,07,6.80
2016,06,15,03,08,6.80
2016,06,15,03,09,6.80
2016,06,15,03,10,6.80
2016,06,15,03,11,6.80
2016,06,15,03,12,6.80
2016,06,15,03,13,6.70
2016,06,15,03,14,6.70
2016,06,15,03,15,6.70
2016,06,15,03,16,6.70
2016,06,15,03,17,6.70
2016,06,15,03,18,6.70
2016,06,15,03,19,6.70
2016,06,15,03,20,6.70
2016,06,15,03,21,6.70
2016,06,15,03,22,6.70
2016,06,15,03,23,6.70
2016,06,15,03,24,6.60
2016,06,15,03,25,6.60
2016,06,15,03,26,6.60
2016,06,15,03,27,6.60
2016,06,15,03,28,6.70
2016,06,15,03,29,6.70
2016,06,15,03,30,6.80
2016,06,15,03,31,6.80
2016,06,15,03,32,6.80
2016,06,15,03,33,6.90
2016,06,15,03,34,6.90
2016,06,15,03,35,6.80
2016,06,15,03,36,6.80
2016,06,15,03,37,6.80
2016,06,15,03,38,6.80
2016,06,15,03,39,6.70
2016,06,15,03,40,6.70
2016,06,15,03,41,6.70
2016,06,15,03,42,6.70
2016,06,15,03,43,6.70
2016,06,15,03,44,6.70
2016,06,15,03,45,6.70
2016,06,15,03,46,6.70
2016,06,15,03,47,6.60
2016,06,15,03,48,6.60
2016,06,15,03,49,6.60
2016,06,15,03,50,6.60
2016,06,15,03,51,6.60
2016,06,15,03,52,6.60
2016,06,15,03,53,6.60
2016,06,15,03,54,6.50
2016,06,15,03,55,6.50
2016,06,15,03,56,6.50
2016,06,15,03,57,6.50
2016,06,15,03,58,6.50
2016,06,15,03,59,6.40
2016,06,15,04,00,6.40
2016,06,15,04,01,6.40
2016,06,15,04,02,6.40
2016,06,15,04,03,6.40
2016,06,15,04,04,6.40
2016,06,15,04,05,6.40
2016,06,15,04,06,6.40
2016,06,15,04,07,6.40
2016,06,15,04,08,6.30
2016,06,15,04,09,6.30
2016,06,15,04,10,6.30
2016,06,15,04,11,6.30
2016,06,15,04,12,6.30
2016,06,15,04,13,6.30
2016,06,15,04,14,6.30
2016,06,15,04,15,6.30
2016,06,15,04,16,6.40
2016,06,15,04,17,6.40
2016,06,15,04,18,6.50
2016,06,15,04,19,6.50
2016,06,15,04,20,6.50
2016,06,15,04,21,6.40
2016,06,15,04,22,6.40
2016,06,15,04,23,6.40
2016,06,15,04,24,6.30
2016,06,15,04,25,6.30
2016,06,15,04,26,6.30
2016,06,15,04,27,6.30
2016,06,15,04,28,6.30
2016,06,15,04,29,6.20
2016,06,15,04,30,6.20
2016,06,15,04,31,6.20
2016,06,15,04,32,6.20
2016,06,15,04,33,6.20
2016,06,15,04,34,6.20
2016,06,15,04,35,6.20
2016,06,15,04,36,6.20
2016,06,15,04,37,6.20
2016,06,15,04,38,6.20
2016,06,15,04,39,6.20
2016,06,15,04,40,6.10
2016,06,15,04,41,6.10
2016,06,15,04,42,6.00
2016,06,15,04,43,6.00
2016,06,15,04,44,6.00
2016,06,15,04,45,5.90
2016,06,15,04,46,5.90
2016,06,15,04,47,5.90
2016,06,15,04,48,5.90
2016,06,15,04,49,5.90
2016,06,15,04,50,5.90
2016,06,15,04,51,5.90
2016,06,15,04,52,5.90
2016,06,15,04,53,5.90
2016,06,15,04,54,5.90
2016,06,15,04,55,5.90
2016,06,15,04,56,5.90
2016,06,15,04,57,5.90
2016,06,15,04,58,5.80
2016,06,15,04,59,5.80
2016,06,15,05,00,5.80
2016,06,15,05,01,5.80
2016,06,15,05,02,5.80
2016,06,15,05,03,5.80
2016,06,15,05,04,5.80
2016,06,15,05,05,5.80
2016,06,15,05,06,5.80
2016,06,15,05,07,5.80
2016,06,15,05,08,5.80
2016,06,15,05,09,5.80
2016,06,15,05,10,5.80
2016,06,15,05,11,5.80
2016,06,15,05,12,5.90
2016,06,15,05,13,5.90
2016,06,15,05,14,5.90
2016,06,15,05,15,5.90
2016,06,15,05,16,5.90
2016,06,15,05,17,5.90
2016,06,15,05,18,5.90
2016,06,15,05,19,5.90
2016,06,15,05,20,6.00
2016,06,15,05,21,6.00
2016,06,15,05,22,6.10
2016,06,15,05,23,6.20
2016,06,15,05,24,6.30
2016,06,15,05,25,6.30
2016,06,15,05,26,6.30
2016,06,15,05,27,6.30
2016,06,15,05,28,6.20
2016,06,15,05,29,6.20
2016,06,15,05,30,6.10
2016,06,15,05,31,6.00
2016,06,15,05,32,5.90
2016,06,15,05,33,5.90
2016,06,15,05,34,5.80
2016,06,15,05,35,5.80
2016,06,15,05,36,5.80
2016,06,15,05,37,5.80
2016,06,15,05,38,5.80
2016,06,15,05,39,5.80
2016,06,15,05,40,5.70
2016,06,15,05,41,5.70
2016,06,15,05,42,5.70
2016,06,15,05,43,5.70
2016,06,15,05,44,5.80
2016,06,15,05,45,5.80
2016,06,15,05,46,5.80
2016,06,15,05,47,5.90
2016,06,15,05,48,5.90
2016,06,15,05,49,5.90
2016,06,15,05,50,5.90
2016,06,15,05,51,5.90
2016,06,15,05,52,6.00
2016,06,15,05,53,6.00
2016,06,15,05,54,6.10
2016,06,15,05,55,6.10
2016,06,15,05,56,6.10
2016,06,15,05,57,6.20
2016,06,15,05,58,6.20
2016,06,15,05,59,6.20
2016,06,15,06,00,6.20
2016,06,15,06,01,6.20
2016,06,15,06,02,6.20
2016,06,15,06,03,6.20
2016,06,15,06,04,6.30
2016,06,15,06,05,6.30
2016,06,15,06,06,6.30
2016,06,15,06,07,6.30
2016,06,15,06,08,6.30
2016,06,15,06,09,6.30
2016,06,15,06,10,6.30
2016,06,15,06,11,6.30
2016,06,15,06,12,6.30
2016,06,15,06,13,6.30
2016,06,15,06,14,6.40
2016,06,15,06,15,6.40
2016,06,15,06,16,6.40
2016,06,15,06,17,6.40
2016,06,15,06,18,6.50
2016,06,15,06,19,6.50
2016,06,15,06,20,6.50
2016,06,15,06,21,6.50
2016,06,15,06,22,6.60
2016,06,15,06,23,6.60
2016,06,15,06,24,6.60
2016,06,15,06,25,6.60
2016,06,15,06,26,6.60
2016,06,15,06,27,6.60
2016,06,15,06,28,6.60
2016,06,15,06,29,6.70
2016,06,15,06,30,6.70
2016,06,15,06,31,6.70
2016,06,15,06,32,6.70
2016,06,15,06,33,6.80
2016,06,15,06,34,6.80
2016,06,15,06,35,6.80
2016,06,15,06,36,6.80
2016,06,15,06,37,6.80
2016,06,15,06,38,6.90
2016,06,15,06,39,6.90
2016,06,15,06,40,6.90
2016,06,15,06,41,7.00
2016,06,15,06,42,7.00
2016,06,15,06,43,7.10
2016,06,15,06,44,7.10
2016,06,15,06,45,7.20
2016,06,15,06,46,7.20
2016,06,15,06,47,7.20
2016,06,15,06,48,7.30
2016,06,15,06,49,7.30
2016,06,15,06,50,7.40
2016,06,15,06,51,7.40
2016,06,15,06,52,7.50
2016,06,15,06,53,7.50
2016,06,15,06,54,7.60
2016,06,15,06,55,7.70
2016,06,15,06,56,7.80
2016,06,15,06,57,7.80
2016,06,15,06,58,7.90
2016,06,15,06,59,8.00
2016,06,15,07,00,8.20
2016,06,15,07,01,8.30
2016,06,15,07,02,8.50
2016,06,15,07,03,8.60
2016,06,15,07,04,8.80
2016,06,15,07,05,8.90
2016,06,15,07,06,9.00
2016,06,15,07,07,9.10
2016,06,15,07,08,9.10
2016,06,15,07,09,9.20
2016,06,15,07,10,9.20
2016,06,15,07,11,9.30
2016,06,15,07,12,9.40
2016,06,15,07,13,9.40
2016,06,15,07,14,9.50
2016,06,15,07,15,9.50
2016,06,15,07,16,9.60
2016,06,15,07,17,9.60
2016,06,15,07,18,9.60
2016,06,15,07,19,9.70
2016,06,15,07,20,9.70
2016,06,15,07,21,9.70
2016,06,15,07,22,9.70
2016,06,15,07,23,9.70
2016,06,15,07,24,9.70
2016,06,15,07,25,9.70
2016,06,15,07,26,9.70
2016,06,15,07,27,9.70
2016,06,15,07,28,9.70
2016,06,15,07,29,9.70
2016,06,15,07,30,9.80
2016,06,15,07,31,9.80
2016,06,15,07,32,9.80
2016,06,15,07,33,9.90
2016,06,15,07,34,9.90
2016,06,15,07,35,9.90
2016,06,15,07,36,9.90
2016,06,15,07,37,9.90
2016,06,15,07,38,9.90
2016,06,15,07,39,10.00
2016,06,15,07,40,10.00
2016,06,15,07,41,10.00
2016,06,15,07,42,10.00
2016,06,15,07,43,10.00
2016,06,15,07,44,10.10
2016,06,15,07,45,10.10
2016,06,15,07,46,10.10
2016,06,15,07,47,10.20
2016,06,15,07,48,10.20
2016,06,15,07,49,10.20
2016,06,15,07,50,10.20
2016,06,15,07,51,10.20
2016,06,15,07,52,10.30
2016,06,15,07,53,10.30
2016,06,15,07,54,10.30
2016,06,15,07,55,10.30
2016,06,15,07,56,10.40
2016,06,15,07,57,10.40
2016,06,15,07,58,10.30
2016,06,15,07,59,10.40
2016,06,15,08,00,10.40
2016,06,15,08,01,10.50
2016,06,15,08,02,10.50
2016,06,15,08,03,10.50
2016,06,15,08,04,10.60
2016,06,15,08,05,10.60
2016,06,15,08,06,10.60
2016,06,15,08,07,10.60
2016,06,15,08,08,10.70
2016,06,15,08,09,10.80
2016,06,15,08,10,10.80
2016,06,15,08,11,10.90
2016,06,15,08,12,10.90
2016,06,15,08,13,10.90
2016,06,15,08,14,10.90
2016,06,15,08,15,11.00
2016,06,15,08,16,11.10
2016,06,15,08,17,11.10
2016,06,15,08,18,11.10
2016,06,15,08,19,11.20
2016,06,15,08,20,11.20
2016,06,15,08,21,11.10
2016,06,15,08,22,11.10
2016,06,15,08,23,11.10
2016,06,15,08,24,11.00
2016,06,15,08,25,11.00
2016,06,15,08,26,11.00
2016,06,15,08,27,10.90
2016,06,15,08,28,10.90
2016,06,15,08,29,10.80
2016,06,15,08,30,10.80
2016,06,15,08,31,10.80
2016,06,15,08,32,10.90
2016,06,15,08,33,10.90
2016,06,15,08,34,10.90
2016,06,15,08,35,10.90
2016,06,15,08,36,10.90
2016,06,15,08,37,10.90
2016,06,15,08,38,10.90
2016,06,15,08,39,10.90
2016,06,15,08,40,11.00
2016,06,15,08,41,11.00
2016,06,15,08,42,11.10
2016,06,15,08,43,11.20
2016,06,15,08,44,11.30
2016,06,15,08,45,11.40
2016,06,15,08,46,11.50
2016,06,15,08,47,11.60
2016,06,15,08,48,11.60
2016,06,15,08,49,11.50
2016,06,15,08,50,11.60
2016,06,15,08,51,11.60
2016,06,15,08,52,11.60
2016,06,15,08,53,11.60
2016,06,15,08,54,11.70
2016,06,15,08,55,11.70
2016,06,15,08,56,11.80
2016,06,15,08,57,11.80
2016,06,15,08,58,11.70
2016,06,15,08,59,11.70
2016,06,15,09,00,11.70
2016,06,15,09,01,11.80
2016,06,15,09,02,11.90
2016,06,15,09,03,12.00
2016,06,15,09,04,12.10
2016,06,15,09,05,12.20
2016,06,15,09,06,12.30
2016,06,15,09,07,12.40
2016,06,15,09,08,12.50
2016,06,15,09,09,12.60
2016,06,15,09,10,12.70
2016,06,15,09,11,12.50
2016,06,15,09,12,12.40
2016,06,15,09,13,12.30
2016,06,15,09,14,12.30
2016,06,15,09,15,12.30
2016,06,15,09,16,12.30
2016,06,15,09,17,12.30
2016,06,15,09,18,12.40
2016,06,15,09,19,12.50
2016,06,15,09,20,12.50
2016,06,15,09,21,12.60
2016,06,15,09,22,12.50
2016,06,15,09,23,12.50
2016,06,15,09,24,12.50
2016,06,15,09,25,12.50
2016,06,15,09,26,12.60
2016,06,15,09,27,12.70
2016,06,15,09,28,12.90
2016,06,15,09,29,12.90
2016,06,15,09,30,13.00
2016,06,15,09,31,13.10
2016,06,15,09,32,13.20
2016,06,15,09,33,13.20
2016,06,15,09,34,13.20
2016,06,15,09,35,13.10
2016,06,15,09,36,12.90
2016,06,15,09,37,12.60
2016,06,15,09,38,12.30
2016,06,15,09,39,12.10
2016,06,15,09,40,12.00
2016,06,15,09,41,11.90
2016,06,15,09,42,11.90
2016,06,15,09,43,11.90
2016,06,15,09,44,11.90
2016,06,15,09,45,11.90
2016,06,15,09,46,11.90
2016,06,15,09,47,11.90
2016,06,15,09,48,11.80
2016,06,15,09,49,11.70
2016,06,15,09,50,11.70
2016,06,15,09,51,11.70
2016,06,15,09,52,11.70
2016,06,15,09,53,11.70
2016,06,15,09,54,11.80
2016,06,15,09,55,11.80
2016,06,15,09,56,11.70
2016,06,15,09,57,11.70
2016,06,15,09,58,11.60
2016,06,15,09,59,11.50
2016,06,15,10,00,11.50
2016,06,15,10,01,11.50
2016,06,15,10,02,11.50
2016,06,15,10,03,11.50
2016,06,15,10,04,11.50
2016,06,15,10,05,11.50
2016,06,15,10,06,11.50
2016,06,15,10,07,11.60
2016,06,15,10,08,11.70
2016,06,15,10,09,11.70
2016,06,15,10,10,11.60
2016,06,15,10,11,11.50
2016,06,15,10,12,11.50
2016,06,15,10,13,11.60
2016,06,15,10,14,11.60
2016,06,15,10,15,11.60
2016,06,15,10,16,11.60
2016,06,15,10,17,11.50
2016,06,15,10,18,11.60
2016,06,15,10,19,11.60
2016,06,15,10,20,11.60
2016,06,15,10,21,11.70
2016,06,15,10,22,12.00
2016,06,15,10,23,12.20
2016,06,15,10,24,12.30
2016,06,15,10,25,12.30
2016,06,15,10,26,12.20
2016,06,15,10,27,12.10
2016,06,15,10,28,12.00
2016,06,15,10,29,12.00
2016,06,15,10,30,11.90
2016,06,15,10,31,11.90
2016,06,15,10,32,11.80
2016,06,15,10,33,11.80
2016,06,15,10,34,11.70
2016,06,15,10,35,11.80
2016,06,15,10,36,11.80
2016,06,15,10,37,11.80
2016,06,15,10,38,11.80
2016,06,15,10,39,11.70
2016,06,15,10,40,11.70
2016,06,15,10,41,11.70
2016,06,15,10,42,11.70
2016,06,15,10,43,11.80
2016,06,15,10,44,11.80
2016,06,15,10,45,11.80
2016,06,15,10,46,11.80
2016,06,15,10,47,11.80
2016,06,15,10,48,11.90
2016,06,15,10,49,12.00
2016,06,15,10,50,12.10
2016,06,15,10,51,12.20
2016,06,15,10,52,12.20
2016,06,15,10,53,12.20
2016,06,15,10,54,12.20
2016,06,15,10,55,12.30
2016,06,15,10,56,12.30
2016,06,15,10,57,12.50
2016,06,15,10,58,12.70
2016,06,15,10,59,12.70
2016,06,15,11,00,12.60
2016,06,15,11,01,12.70
2016,06,15,11,02,12.60
2016,06,15,11,03,12.60
2016,06,15,11,04,12.70
2016,06,15,11,05,12.90
2016,06,15,11,06,13.00
2016,06,15,11,07,13.00
2016,06,15,11,08,12.90
2016,06,15,11,09,12.80
2016,06,15,11,10,12.80
2016,06,15,11,11,12.80
2016,06,15,11,12,12.80
2016,06,15,11,13,12.80
2016,06,15,11,14,13.00
2016,06,15,11,15,13.10
2016,06,15,11,16,13.10
2016,06,15,11,17,13.20
2016,06,15,11,18,13.20
2016,06,15,11,19,13.10
2016,06,15,11,20,12.90
2016,06,15,11,21,12.80
2016,06,15,11,22,12.60
2016,06,15,11,23,12.50
2016,06,15,11,24,12.40
2016,06,15,11,25,12.40
2016,06,15,11,26,12.50
2016,06,15,11,27,12.40
2016,06,15,11,28,12.40
2016,06,15,11,29,12.30
2016,06,15,11,30,12.20
2016,06,15,11,31,12.20
2016,06,15,11,32,12.20
2016,06,15,11,33,12.10
2016,06,15,11,34,12.00
2016,06,15,11,35,11.90
2016,06,15,11,36,12.00
2016,06,15,11,37,12.00
2016,06,15,11,38,12.10
2016,06,15,11,39,12.20
2016,06,15,11,40,12.20
2016,06,15,11,41,12.20
2016,06,15,11,42,12.20
2016,06,15,11,43,12.20
2016,06,15,11,44,12.20
2016,06,15,11,45,12.10
2016,06,15,11,46,12.00
2016,06,15,11,47,11.90
2016,06,15,11,48,11.90
2016,06,15,11,49,11.90
2016,06,15,11,50,11.90
2016,06,15,11,51,11.90
2016,06,15,11,52,11.90
2016,06,15,11,53,11.90
2016,06,15,11,54,11.90
2016,06,15,11,55,11.90
2016,06,15,11,56,11.80
2016,06,15,11,57,11.80
2016,06,15,11,58,11.80
2016,06,15,11,59,11.70
2016,06,15,12,00,11.70
2016,06,15,12,01,11.70
2016,06,15,12,02,11.80
2016,06,15,12,03,11.80
2016,06,15,12,04,11.80
2016,06,15,12,05,11.80
2016,06,15,12,06,11.80
2016,06,15,12,07,11.90
2016,06,15,12,08,12.00
2016,06,15,12,09,12.00
2016,06,15,12,10,12.00
2016,06,15,12,11,12.00
2016,06,15,12,12,11.90
2016,06,15,12,13,11.80
2016,06,15,12,14,11.80
2016,06,15,12,15,11.80
2016,06,15,12,16,11.80
2016,06,15,12,17,11.70
2016,06,15,12,18,11.70
2016,06,15,12,19,11.70
2016,06,15,12,20,11.70
2016,06,15,12,21,11.70
2016,06,15,12,22,11.70
2016,06,15,12,23,11.70
2016,06,15,12,24,11.70
2016,06,15,12,25,11.70
2016,06,15,12,26,11.70
2016,06,15,12,27,11.70
2016,06,15,12,28,11.70
2016,06,15,12,29,11.70
2016,06,15,12,30,11.60
2016,06,15,12,31,11.60
2016,06,15,12,32,11.70
2016,06,15,12,33,11.70
2016,06,15,12,34,11.70
2016,06,15,12,35,11.70
2016,06,15,12,36,11.70
2016,06,15,12,37,11.70
2016,06,15,12,38,11.60
2016,06,15,12,39,11.50
2016,06,15,12,40,11.40
2016,06,15,12,41,11.30
2016,06,15,12,42,11.30
2016,06,15,12,43,11.30
2016,06,15,12,44,11.30
2016,06,15,12,45,11.30
2016,06,15,12,46,11.30
2016,06,15,12,47,11.20
2016,06,15,12,48,11.20
2016,06,15,12,49,11.20
2016,06,15,12,50,11.20
2016,06,15,12,51,11.20
2016,06,15,12,52,11.20
2016,06,15,12,53,11.20
2016,06,15,12,54,11.20
2016,06,15,12,55,11.20
2016,06,15,12,56,11.10
2016,06,15,12,57,11.20
2016,06,15,12,58,11.20
2016,06,15,12,59,11.20
2016,06,15,13,00,11.20
2016,06,15,13,01,11.20
2016,06,15,13,02,11.20
2016,06,15,13,03,11.20
2016,06,15,13,04,11.20
2016,06,15,13,05,11.30
2016,06,15,13,06,11.20
2016,06,15,13,07,11.20
2016,06,15,13,08,11.20
2016,06,15,13,09,11.30
2016,06,15,13,10,11.20
2016,06,15,13,11,11.30
2016,06,15,13,12,11.30
2016,06,15,13,13,11.40
2016,06,15,13,14,11.40
2016,06,15,13,15,11.50
2016,06,15,13,16,11.60
2016,06,15,13,17,11.60
2016,06,15,13,18,11.60
2016,06,15,13,19,11.70
2016,06,15,13,20,11.70
2016,06,15,13,21,11.80
2016,06,15,13,22,11.90
2016,06,15,13,23,12.00
2016,06,15,13,24,12.00
2016,06,15,13,25,12.10
2016,06,15,13,26,12.20
2016,06,15,13,27,12.20
2016,06,15,13,28,12.30
2016,06,15,13,29,12.40
2016,06,15,13,30,12.50
2016,06,15,13,31,12.50
2016,06,15,13,32,12.60
2016,06,15,13,33,12.60
2016,06,15,13,34,12.60
2016,06,15,13,35,12.70
2016,06,15,13,36,12.70
2016,06,15,13,37,12.80
2016,06,15,13,38,12.70
2016,06,15,13,39,12.70
2016,06,15,13,40,12.70
2016,06,15,13,41,12.70
2016,06,15,13,42,12.80
2016,06,15,13,43,12.80
2016,06,15,13,44,12.80
2016,06,15,13,45,12.90
2016,06,15,13,46,13.00
2016,06,15,13,47,13.10
2016,06,15,13,48,13.10
2016,06,15,13,49,13.10
2016,06,15,13,50,13.10
2016,06,15,13,51,13.00
2016,06,15,13,52,13.00
2016,06,15,13,53,13.00
2016,06,15,13,54,13.00
2016,06,15,13,55,13.00
2016,06,15,13,56,13.10
2016,06,15,13,57,13.10
2016,06,15,13,58,13.10
2016,06,15,13,59,13.20
2016,06,15,14,00,13.10
2016,06,15,14,01,13.00
2016,06,15,14,02,12.90
2016,06,15,14,03,12.90
2016,06,15,14,04,12.80
2016,06,15,14,05,12.90
2016,06,15,14,06,12.90
2016,06,15,14,07,13.00
2016,06,15,14,08,13.00
2016,06,15,14,09,12.90
2016,06,15,14,10,12.90
2016,06,15,14,11,13.00
2016,06,15,14,12,12.90
2016,06,15,14,13,12.90
2016,06,15,14,14,13.00
2016,06,15,14,15,13.10
2016,06,15,14,16,13.10
2016,06,15,14,17,13.10
2016,06,15,14,18,13.10
2016,06,15,14,19,13.10
2016,06,15,14,20,13.20
2016,06,15,14,21,13.30
2016,06,15,14,22,13.30
2016,06,15,14,23,13.30
2016,06,15,14,24,13.30
2016,06,15,14,25,13.30
2016,06,15,14,26,13.30
2016,06,15,14,27,13.30
2016,06,15,14,28,13.40
2016,06,15,14,29,13.50
2016,06,15,14,30,13.60
2016,06,15,14,31,13.70
2016,06,15,14,32,13.70
2016,06,15,14,33,13.80
2016,06,15,14,34,13.80
2016,06,15,14,35,13.90
2016,06,15,14,36,13.90
2016,06,15,14,37,13.90
2016,06,15,14,38,13.80
2016,06,15,14,39,13.80
2016,06,15,14,40,13.80
2016,06,15,14,41,13.80
2016,06,15,14,42,13.90
2016,06,15,14,43,13.90
2016,06,15,14,44,13.90
2016,06,15,14,45,13.90
2016,06,15,14,46,13.90
2016,06,15,14,47,13.90
2016,06,15,14,48,13.90
2016,06,15,14,49,13.90
2016,06,15,14,50,13.90
2016,06,15,14,51,14.00
2016,06,15,14,52,14.00
2016,06,15,14,53,14.00
2016,06,15,14,54,14.10
2016,06,15,14,55,14.00
2016,06,15,14,56,13.90
2016,06,15,14,57,13.80
2016,06,15,14,58,13.80
2016,06,15,14,59,13.70
2016,06,15,15,00,13.60
2016,06,15,15,01,13.60
2016,06,15,15,02,13.60
2016,06,15,15,03,13.50
2016,06,15,15,04,13.50
2016,06,15,15,05,13.50
2016,06,15,15,06,13.50
2016,06,15,15,07,13.50
2016,06,15,15,08,13.60
2016,06,15,15,09,13.60
2016,06,15,15,10,13.60
2016,06,15,15,11,13.60
2016,06,15,15,12,13.60
2016,06,15,15,13,13.60
2016,06,15,15,14,13.50
2016,06,15,15,15,13.50
2016,06,15,15,16,13.50
2016,06,15,15,17,13.60
2016,06,15,15,18,13.60
2016,06,15,15,19,13.60
2016,06,15,15,20,13.60
2016,06,15,15,21,13.60
2016,06,15,15,22,13.60
2016,06,15,15,23,13.60
2016,06,15,15,24,13.60
2016,06,15,15,25,13.60
2016,06,15,15,26,13.60
2016,06,15,15,27,13.60
2016,06,15,15,28,13.60
2016,06,15,15,29,13.50
2016,06,15,15,30,13.50
2016,06,15,15,31,13.50
2016,06,15,15,32,13.40
2016,06,15,15,33,13.40
2016,06,15,15,34,13.30
2016,06,15,15,35,13.30
2016,06,15,15,36,13.30
2016,06,15,15,37,13.30
2016,06,15,15,38,13.30
2016,06,15,15,39,13.20
2016,06,15,15,40,13.20
2016,06,15,15,41,13.20
2016,06,15,15,42,13.20
2016,06,15,15,43,13.10
2016,06,15,15,44,13.10
2016,06,15,15,45,13.10
2016,06,15,15,46,13.00
2016,06,15,15,47,13.10
2016,06,15,15,48,13.10
2016,06,15,15,49,13.20
2016,06,15,15,50,13.20
2016,06,15,15,51,13.30
2016,06,15,15,52,13.30
2016,06,15,15,53,13.40
2016,06,15,15,54,13.40
2016,06,15,15,55,13.40
2016,06,15,15,56,13.50
2016,06,15,15,57,13.50
2016,06,15,15,58,13.40
2016,06,15,15,59,13.50
2016,06,15,16,00,13.50
2016,06,15,16,01,13.60
2016,06,15,16,02,13.60
2016,06,15,16,03,13.70
2016,06,15,16,04,13.80
2016,06,15,16,05,13.90
2016,06,15,16,06,14.00
2016,06,15,16,07,14.10
2016,06,15,16,08,14.10
2016,06,15,16,09,14.10
2016,06,15,16,10,14.10
2016,06,15,16,11,14.20
2016,06,15,16,12,14.20
2016,06,15,16,13,14.20
2016,06,15,16,14,14.10
2016,06,15,16,15,14.10
2016,06,15,16,16,14.10
2016,06,15,16,17,14.00
2016,06,15,16,18,14.00
2016,06,15,16,19,14.00
2016,06,15,16,20,13.90
2016,06,15,16,21,13.90
2016,06,15,16,22,13.90
2016,06,15,16,23,13.80
2016,06,15,16,24,13.70
2016,06,15,16,25,13.70
2016,06,15,16,26,13.70
2016,06,15,16,27,13.70
2016,06,15,16,28,13.60
2016,06,15,16,29,13.60
2016,06,15,16,30,13.70
2016,06,15,16,31,13.70
2016,06,15,16,32,13.70
2016,06,15,16,33,13.70
2016,06,15,16,34,13.70
2016,06,15,16,35,13.70
2016,06,15,16,36,13.70
2016,06,15,16,37,13.80
2016,06,15,16,38,13.80
2016,06,15,16,39,13.80
2016,06,15,16,40,13.80
2016,06,15,16,41,13.80
2016,06,15,16,42,13.80
2016,06,15,16,43,13.80
2016,06,15,16,44,13.90
2016,06,15,16,45,13.90
2016,06,15,16,46,14.00
2016,06,15,16,47,14.00
2016,06,15,16,48,14.10
2016,06,15,16,49,14.10
2016,06,15,16,50,14.10
2016,06,15,16,51,14.10
2016,06,15,16,52,14.20
2016,06,15,16,53,14.20
2016,06,15,16,54,14.30
2016,06,15,16,55,14.40
2016,06,15,16,56,14.40
2016,06,15,16,57,14.50
2016,06,15,16,58,14.50
2016,06,15,16,59,14.50
2016,06,15,17,00,14.40
2016,06,15,17,01,14.30
2016,06,15,17,02,14.30
2016,06,15,17,03,14.20
2016,06,15,17,04,14.20
2016,06,15,17,05,14.10
2016,06,15,17,06,14.10
2016,06,15,17,07,14.10
2016,06,15,17,08,14.00
2016,06,15,17,09,13.90
2016,06,15,17,10,13.90
2016,06,15,17,11,14.00
2016,06,15,17,12,14.00
2016,06,15,17,13,14.10
2016,06,15,17,14,14.20
2016,06,15,17,15,14.30
2016,06,15,17,16,14.50
2016,06,15,17,17,14.60
2016,06,15,17,18,14.70
2016,06,15,17,19,14.90
2016,06,15,17,20,15.00
2016,06,15,17,21,15.00
2016,06,15,17,22,15.00
2016,06,15,17,23,15.00
2016,06,15,17,24,15.00
2016,06,15,17,25,15.00
2016,06,15,17,26,15.00
2016,06,15,17,27,15.00
2016,06,15,17,28,15.00
2016,06,15,17,29,15.00
2016,06,15,17,30,15.00
2016,06,15,17,31,15.00
2016,06,15,17,32,15.00
2016,06,15,17,33,15.00
2016,06,15,17,34,15.00
2016,06,15,17,35,15.00
2016,06,15,17,36,14.90
2016,06,15,17,37,14.70
2016,06,15,17,38,14.70
2016,06,15,17,39,14.70